This demonstration page uses our WeatherBlox Daily Observations layout. Learn more.

Left ArrowRight Arrow

39.08367, -84.50855

Hourly Observations for November 17, 2018

Temp ( °F °C ) Dew Point ( °F °C ) Humidity (%) Winds ( mph kmh ) Pressure ( in mb ) Visibility ( mi km ) Precip ( " mm )
12:53 am 00:53 Cloudy 40 4.4 34 1.1 79 79 WNW 6 9 30.22 1023 8 13 0.00 0.00
1:53 am 01:53 Cloudy 39 3.9 35 1.7 86 86 SW 6 9 30.22 1024 9 14 0.00 0.00
2:53 am 02:53 Cloudy 39 3.9 34 1.1 82 82 SW 7 11 30.23 1024 8 13 0.00 0.00
3:53 am 03:53 Cloudy 39 3.9 35 1.7 86 86 SW 5 7 30.25 1024 9 14 0.00 0.00
4:53 am 04:53 Cloudy 38 3.3 35 1.7 89 89 S 5 7 30.26 1025 8 13 0.00 0.00
5:53 am 05:53 Cloudy 39 3.9 34 1.1 82 82 SSE 3 6 30.28 1025 9 14 0.00 0.00
6:53 am 06:53 Cloudy 39 3.9 35 1.7 86 86 Calm 30.29 1026 9 14 0.00 0.00
7:53 am 07:53 Cloudy 39 3.9 34 1.1 82 82 SE 3 6 30.30 1026 7 11 0.00 0.00
8:53 am 08:53 Cloudy 40 4.4 34 1.1 79 79 S 6 9 30.31 1026 8 13 0.00 0.00
9:53 am 09:53 Cloudy 40 4.4 34 1.1 79 79 SSE 3 6 30.31 1027 7 11 0.00 0.00
10:53 am 10:53 Cloudy with Haze 41 5 35 1.7 79 79 S 6 9 30.31 1026 6 10 0.00 0.00
11:53 am 11:53 Cloudy 41 5 35 1.7 79 79 WSW 5 7 30.30 1026 7 11 0.00 0.00
12:53 pm 12:53 Mostly Cloudy 43 6.1 35 1.7 74 74 S 5 7 30.28 1025 8 13 0.00 0.00
1:53 pm 13:53 Mostly Cloudy 46 7.8 37 2.8 71 71 VRB 5 7 30.26 1025 9 14 0.00 0.00
2:09 pm 14:09 Partly Cloudy 45 7.2 36 2.2 71 71 VRB 5 7 30.24 1024 10 16 0.00 0.00
2:53 pm 14:53 Partly Cloudy 46 7.8 36 2.2 68 68 VRB 3 6 30.26 1025 9 14 0.00 0.00
3:53 pm 15:53 Sunny 47 8.3 36 2.2 66 66 Calm 30.26 1025 10 16 0.00 0.00
4:53 pm 16:53 Sunny 45 7.2 35 1.7 68 68 Calm 30.27 1025 10 16 0.00 0.00
5:53 pm 17:53 Clear 41 5 37 2.8 86 86 NE 3 6 30.27 1025 10 16 0.00 0.00
6:53 pm 18:53 Clear 40 4.4 37 2.8 89 89 Calm 30.27 1025 10 16 0.00 0.00
7:53 pm 19:53 Clear 38 3.3 36 2.2 93 93 NNE 3 6 30.27 1025 7 11 0.00 0.00
8:53 pm 20:53 Clear with Mist and Fog 38 3.3 36 2.2 93 93 Calm 30.27 1025 6 10 0.00 0.00
9:53 pm 21:53 Clear with Mist and Fog 38 3.3 37 2.8 97 97 Calm 30.27 1025 5 8 0.00 0.00
10:53 pm 22:53 Clear with Mist and Fog 37 2.8 36 2.2 96 96 NNE 3 6 30.27 1025 5 8 0.00 0.00
11:48 pm 23:48 Clear with Mist and Fog 36 2 36 2 100 100 Calm 30.30 1026 2 3 0.00 0.00
11:53 pm 23:53 Clear with Mist and Fog 36 2.2 36 2.2 100 100 Calm 30.27 1025 2 3 0.00 0.00
11:57 pm 23:57 Clear with Mist and Fog 36 2.2 36 2.2 100 100 Calm 30.30 1026 3 5 0.00 0.00

Powered by AerisWeather